QPF
0.00 0.00 0.00 0.00 0.00 0.00 0.00 0.00 0.00 0.00 0.00 0.00 0.00 0.00 0.00 0.00 0.00 0.00 0.00 0.00 0.00 0.00 0.01 0.01 0.00 0.01 0.01 0.01 0.01 0.00 0.00 0.00 0.00 0.00 0.00 0.01 0.01 0.01 0.02 0.02 0.00 0.00 0.00
0.01 0.00 0.00 0.00 0.00 0.00 0.00 0.00 0.00 0.00 0.00 0.00 0.00 0.00 0.00 0.00 0.00 0.00 0.00 0.00 0.00 0.00 0.00 0.00 0.00 0.00 0.00 0.00 0.00 0.00 0.00 0.00 0.00 0.00 0.00 0.01 0.03 0.03 0.02 0.02 0.00 0.00 0.00
0.01 0.00 0.00 0.00 0.00 0.00 0.00 0.00 0.00 0.00 0.00 0.00 0.00 0.00 0.00 0.00 0.00 0.00 0.00 0.00 0.00 0.00 0.00 0.00 0.00 0.00 0.00 0.00 0.00 0.00 0.00 0.00 0.00 0.00 0.01 0.01 0.03 0.06 0.05 0.02 0.01 0.01 0.00
0.00 0.00 0.00 0.00 0.00 0.00 0.00 0.00 0.00 0.00 0.00 0.01 0.01 0.00 0.00 0.00 0.00 0.00 0.00 0.00 0.00 0.00 0.00 0.00 0.00 0.00 0.00 0.00 0.00 0.00 0.00 0.00 0.00 0.01 0.02 0.02 0.03 0.05 0.04 0.02 0.02 0.01 0.01
0.00 0.00 0.00 0.00 0.00 0.00 0.00 0.00 0.00 0.00 0.00 0.00 0.01 0.00 0.00 0.00 0.00 0.00 0.00 0.00 0.00 0.00 0.01 0.01 0.00 0.00 0.00 0.00 0.00 0.00 0.00 0.00 0.00 0.02 0.05 0.05 0.04 0.06 0.05 0.03 0.02 0.01 0.01
0.00 0.00 0.00 0.00 0.00 0.00 0.00 0.00 0.00 0.00 0.00 0.00 0.00 0.00 0.00 0.00 0.00 0.00 0.01 0.01 0.01 0.01 0.01 0.01 0.00 0.00 0.00 0.00 0.00 0.00 0.00 0.00 0.01 0.03 0.06 0.07 0.05 0.03 0.03 0.02 0.01 0.00 0.00
0.01 0.00 0.00 0.00 0.00 0.00 0.00 0.00 0.00 0.00 0.00 0.00 0.00 0.00 0.00 0.00 0.00 0.01 0.01 0.02 0.02 0.02 0.02 0.01 0.00 0.00 0.00 0.00 0.00 0.00 0.00 0.00 0.01 0.03 0.03 0.03 0.02 0.01 0.01 0.01 0.01 0.00 0.00
0.01 0.00 0.00 0.00 0.00 0.00 0.00 0.00 0.00 0.00 0.00 0.00 0.00 0.00 0.00 0.00 0.00 0.01 0.02 0.02 0.03 0.04 0.03 0.02 0.01 0.00 0.00 0.00 0.00 0.00 0.00 0.00 0.00 0.01 0.02 0.01 0.01 0.00 0.00 0.00 0.01 0.01 0.00
0.05 0.04 0.01 0.00 0.00 0.00 0.00 0.00 0.00 0.00 0.00 0.00 0.00 0.00 0.00 0.00 0.01 0.02 0.03 0.03 0.03 0.02 0.01 0.01 0.00 0.00 0.00 0.00 0.00 0.00 0.00 0.00 0.00 0.00 0.00 0.00 0.00 0.00 0.00 0.00 0.00 0.00 0.00
0.18 0.20 0.10 0.03 0.00 0.00 0.00 0.00 0.00 0.00 0.00 0.00 0.00 0.00 0.00 0.01 0.02 0.02 0.02 0.01 0.01 0.00 0.00 0.00 0.00 0.00 0.00 0.00 0.00 0.00 0.00 0.00 0.00 0.00 0.00 0.00 0.00 0.00 0.00 0.00 0.00 0.00 0.00
0.36 0.41 0.35 0.10 0.01 0.00 0.00 0.00 0.00 0.00 0.00 0.00 0.00 0.00 0.01 0.02 0.03 0.02 0.01 0.00 0.00 0.00 0.00 0.00 0.00 0.00 0.00 0.00 0.00 0.00 0.00 0.00 0.00 0.00 0.00 0.00 0.00 0.00 0.00 0.00 0.00 0.00 0.00
0.42 0.39 0.28 0.08 0.02 0.01 0.00 0.00 0.00 0.00 0.00 0.00 0.00 0.00 0.01 0.02 0.02 0.01 0.00 0.00 0.00 0.00 0.00 0.00 0.00 0.00 0.00 0.00 0.00 0.00 0.00 0.00 0.00 0.00 0.00 0.00 0.00 0.00 0.00 0.00 0.00 0.00 0.00
0.30 0.18 0.11 0.09 0.06 0.02 0.00 0.00 0.00 0.00 0.00 0.01 0.01 0.00 0.01 0.01 0.01 0.01 0.00 0.00 0.00 0.00 0.00 0.00 0.00 0.00 0.00 0.00 0.00 0.00 0.00 0.00 0.00 0.00 0.00 0.00 0.00 0.00 0.00 0.00 0.00 0.00 0.00
0.14 0.10 0.08 0.08 0.06 0.04 0.02 0.01 0.01 0.01 0.01 0.01 0.00 0.00 0.01 0.01 0.01 0.00 0.00 0.00 0.00 0.00 0.00 0.00 0.00 0.00 0.00 0.00 0.00 0.00 0.00 0.00 0.00 0.00 0.00 0.00 0.00 0.00 0.00 0.00 0.00 0.00 0.00
0.15 0.12 0.10 0.09 0.06 0.03 0.02 0.00 0.00 0.00 0.00 0.00 0.00 0.00 0.01 0.00 0.00 0.00 0.00 0.00 0.00 0.00 0.00 0.00 0.00 0.00 0.00 0.00 0.00 0.00 0.00 0.00 0.00 0.00 0.00 0.00 0.00 0.00 0.00 0.00 0.00 0.00 0.00
0.38 0.33 0.16 0.08 0.03 0.02 0.01 0.00 0.00 0.00 0.00 0.00 0.00 0.00 0.00 0.00 0.00 0.00 0.00 0.00 0.00 0.00 0.00 0.00 0.00 0.00 0.00 0.00 0.00 0.00 0.00 0.00 0.00 0.00 0.00 0.00 0.00 0.00 0.00 0.00 0.00 0.00 0.00
0.52 0.48 0.22 0.07 0.01 0.01 0.00 0.00 0.00 0.00 0.00 0.01 0.01 0.00 0.00 0.00 0.00 0.00 0.00 0.00 0.00 0.00 0.00 0.00 0.00 0.00 0.00 0.00 0.00 0.00 0.01 0.01 0.01 0.00 0.00 0.00 0.00 0.00 0.00 0.00 0.01 0.01 0.01
0.56 0.58 0.28 0.06 0.01 0.01 0.00 0.00 0.00 0.00 0.00 0.00 0.00 0.00 0.00 0.00 0.00 0.00 0.00 0.00 0.00 0.00 0.01 0.01 0.01 0.01 0.01 0.01 0.02 0.02 0.02 0.02 0.02 0.01 0.01 0.01 0.01 0.00 0.00 0.00 0.00 0.01 0.01
0.44 0.38 0.19 0.06 0.03 0.03 0.02 0.01 0.00 0.00 0.00 0.00 0.00 0.00 0.00 0.00 0.00 0.00 0.00 0.00 0.00 0.01 0.02 0.03 0.04 0.04 0.04 0.04 0.05 0.04 0.03 0.02 0.02 0.02 0.01 0.01 0.01 0.00 0.00 0.00 0.00 0.00 0.01
0.28 0.19 0.10 0.07 0.09 0.06 0.03 0.02 0.01 0.01 0.01 0.01 0.01 0.01 0.01 0.01 0.01 0.01 0.01 0.01 0.01 0.03 0.05 0.07 0.07 0.06 0.05 0.03 0.02 0.02 0.02 0.02 0.02 0.01 0.01 0.01 0.00 0.00 0.00 0.00 0.00 0.01 0.02
0.12 0.10 0.10 0.11 0.12 0.12 0.10 0.06 0.04 0.03 0.02 0.02 0.03 0.03 0.05 0.05 0.05 0.05 0.04 0.04 0.03 0.03 0.03 0.03 0.03 0.03 0.03 0.02 0.01 0.01 0.00 0.00 0.00 0.00 0.00 0.00 0.00 0.00 0.00 0.00 0.00 0.00 0.01
0.09 0.09 0.11 0.12 0.12 0.12 0.11 0.07 0.06 0.05 0.06 0.07 0.08 0.10 0.10 0.10 0.09 0.07 0.06 0.04 0.03 0.02 0.02 0.01 0.01 0.01 0.00 0.00 0.00 0.00 0.00 0.00 0.00 0.00 0.00 0.00 0.00 0.00 0.00 0.00 0.00 0.00 0.00
0.04 0.04 0.05 0.05 0.06 0.07 0.07 0.08 0.08 0.07 0.07 0.09 0.10 0.09 0.09 0.09 0.09 0.08 0.05 0.03 0.01 0.01 0.01 0.01 0.00 0.00 0.00 0.00 0.00 0.01 0.00 0.00 0.00 0.00 0.00 0.00 0.00 0.00 0.00 0.00 0.00 0.00 0.00
0.00 0.01 0.01 0.01 0.01 0.02 0.03 0.04 0.05 0.05 0.04 0.04 0.04 0.04 0.04 0.04 0.03 0.03 0.02 0.01 0.01 0.00 0.00 0.00 0.00 0.00 0.00 0.00 0.00 0.00 0.00 0.00 0.01 0.00 0.00 0.00 0.00 0.00 0.00 0.00 0.00 0.00 0.00
0.00 0.00 0.00 0.00 0.00 0.00 0.01 0.01 0.02 0.02 0.01 0.01 0.01 0.01 0.01 0.01 0.00 0.00 0.00 0.00 0.00 0.00 0.00 0.00 0.00 0.00 0.00 0.00 0.00 0.00 0.00 0.00 0.01 0.01 0.01 0.00 0.00 0.00 0.00 0.00 0.00 0.00 0.00
0.00 0.00 0.00 0.00 0.00 0.00 0.00 0.00 0.00 0.00 0.00 0.00 0.00 0.00 0.00 0.00 0.00 0.00 0.00 0.00 0.00 0.00 0.00 0.00 0.00 0.00 0.00 0.00 0.00 0.01 0.01 0.01 0.01 0.02 0.02 0.01 0.01 0.00 0.00 0.00 0.00 0.00 0.00
MSLP
1014.26 1013.74 1013.40 1013.28 1013.36 1013.58 1013.85 1014.09 1014.25 1014.31 1014.28 1014.22 1014.18 1014.22 1014.33 1014.51 1014.73 1014.93 1015.07 1015.14 1015.14 1015.10 1015.05 1015.04 1015.09 1015.19 1015.33 1015.49 1015.62 1015.72 1015.76 1015.76 1015.75 1015.75 1015.78 1015.85 1015.96 1016.09 1016.23 1016.35 1016.45 1016.52 1016.57
1014.02 1013.62 1013.39 1013.37 1013.52 1013.79 1014.08 1014.32 1014.46 1014.50 1014.46 1014.40 1014.38 1014.43 1014.58 1014.79 1015.03 1015.24 1015.38 1015.43 1015.42 1015.35 1015.28 1015.24 1015.25 1015.31 1015.41 1015.51 1015.59 1015.63 1015.62 1015.58 1015.54 1015.51 1015.53 1015.59 1015.70 1015.84 1015.99 1016.13 1016.25 1016.36 1016.45
1013.75 1013.47 1013.35 1013.43 1013.66 1013.97 1014.29 1014.53 1014.67 1014.70 1014.65 1014.60 1014.60 1014.67 1014.83 1015.05 1015.29 1015.49 1015.61 1015.65 1015.61 1015.52 1015.43 1015.37 1015.35 1015.38 1015.43 1015.49 1015.52 1015.51 1015.46 1015.39 1015.32 1015.28 1015.29 1015.35 1015.46 1015.60 1015.76 1015.91 1016.06 1016.19 1016.32
1013.50 1013.33 1013.32 1013.48 1013.78 1014.14 1014.47 1014.73 1014.87 1014.90 1014.87 1014.83 1014.84 1014.93 1015.09 1015.30 1015.52 1015.69 1015.78 1015.79 1015.73 1015.63 1015.53 1015.45 1015.42 1015.42 1015.45 1015.47 1015.46 1015.42 1015.35 1015.26 1015.19 1015.15 1015.16 1015.22 1015.32 1015.45 1015.60 1015.75 1015.90 1016.06 1016.21
1013.32 1013.25 1013.32 1013.56 1013.90 1014.29 1014.64 1014.90 1015.05 1015.09 1015.08 1015.07 1015.10 1015.19 1015.35 1015.54 1015.73 1015.86 1015.92 1015.90 1015.82 1015.71 1015.60 1015.53 1015.50 1015.50 1015.51 1015.51 1015.49 1015.43 1015.35 1015.26 1015.19 1015.16 1015.17 1015.22 1015.31 1015.42 1015.54 1015.67 1015.81 1015.96 1016.13
1013.25 1013.25 1013.39 1013.67 1014.04 1014.43 1014.78 1015.03 1015.18 1015.24 1015.26 1015.28 1015.34 1015.45 1015.61 1015.78 1015.93 1016.03 1016.05 1016.00 1015.90 1015.80 1015.70 1015.65 1015.63 1015.64 1015.65 1015.65 1015.62 1015.56 1015.49 1015.41 1015.34 1015.31 1015.32 1015.36 1015.42 1015.49 1015.58 1015.67 1015.77 1015.90 1016.05
1013.29 1013.34 1013.52 1013.83 1014.19 1014.56 1014.88 1015.11 1015.25 1015.33 1015.37 1015.43 1015.53 1015.67 1015.84 1016.01 1016.13 1016.20 1016.19 1016.12 1016.02 1015.93 1015.86 1015.82 1015.83 1015.86 1015.88 1015.89 1015.86 1015.81 1015.73 1015.66 1015.60 1015.57 1015.57 1015.59 1015.61 1015.64 1015.67 1015.70 1015.76 1015.84 1015.96
1013.40 1013.51 1013.72 1014.02 1014.35 1014.67 1014.94 1015.13 1015.26 1015.34 1015.42 1015.52 1015.67 1015.85 1016.04 1016.21 1016.32 1016.37 1016.34 1016.26 1016.17 1016.09 1016.05 1016.05 1016.08 1016.13 1016.17 1016.18 1016.15 1016.10 1016.02 1015.94 1015.89 1015.85 1015.83 1015.83 1015.82 1015.80 1015.77 1015.75 1015.74 1015.78 1015.86
1013.57 1013.72 1013.94 1014.22 1014.51 1014.77 1014.96 1015.10 1015.19 1015.28 1015.38 1015.54 1015.74 1015.96 1016.18 1016.37 1016.48 1016.51 1016.48 1016.40 1016.32 1016.26 1016.24 1016.28 1016.34 1016.41 1016.46 1016.46 1016.43 1016.36 1016.27 1016.19 1016.12 1016.07 1016.04 1016.01 1015.97 1015.91 1015.84 1015.76 1015.71 1015.70 1015.74
1013.74 1013.94 1014.19 1014.44 1014.67 1014.85 1014.97 1015.04 1015.09 1015.17 1015.30 1015.49 1015.74 1016.01 1016.26 1016.46 1016.58 1016.61 1016.58 1016.50 1016.43 1016.40 1016.41 1016.46 1016.55 1016.63 1016.67 1016.67 1016.62 1016.53 1016.42 1016.31 1016.23 1016.17 1016.12 1016.08 1016.02 1015.94 1015.84 1015.74 1015.66 1015.62 1015.63
1013.90 1014.17 1014.43 1014.66 1014.83 1014.93 1014.96 1014.97 1014.98 1015.04 1015.18 1015.41 1015.70 1016.00 1016.28 1016.50 1016.62 1016.66 1016.62 1016.55 1016.49 1016.47 1016.51 1016.58 1016.67 1016.75 1016.79 1016.77 1016.69 1016.57 1016.44 1016.31 1016.20 1016.13 1016.08 1016.03 1015.97 1015.89 1015.79 1015.68 1015.59 1015.53 1015.53
1014.05 1014.38 1014.67 1014.87 1014.99 1015.01 1014.97 1014.91 1014.88 1014.93 1015.07 1015.32 1015.63 1015.96 1016.25 1016.48 1016.61 1016.64 1016.61 1016.55 1016.50 1016.50 1016.54 1016.62 1016.71 1016.78 1016.80 1016.76 1016.65 1016.50 1016.34 1016.18 1016.06 1015.97 1015.92 1015.88 1015.83 1015.77 1015.68 1015.58 1015.50 1015.44 1015.44
1014.21 1014.59 1014.88 1015.06 1015.13 1015.09 1014.99 1014.88 1014.82 1014.85 1015.00 1015.25 1015.57 1015.90 1016.20 1016.43 1016.56 1016.60 1016.57 1016.52 1016.48 1016.48 1016.53 1016.61 1016.69 1016.75 1016.74 1016.67 1016.54 1016.36 1016.16 1015.99 1015.85 1015.76 1015.70 1015.67 1015.64 1015.60 1015.54 1015.46 1015.39 1015.34 1015.32
1014.39 1014.78 1015.07 1015.22 1015.24 1015.16 1015.02 1014.88 1014.81 1014.83 1014.98 1015.22 1015.54 1015.87 1016.17 1016.38 1016.51 1016.55 1016.53 1016.49 1016.46 1016.47 1016.52 1016.59 1016.66 1016.69 1016.66 1016.57 1016.41 1016.20 1015.99 1015.79 1015.64 1015.54 1015.48 1015.45 1015.43 1015.41 1015.36 1015.30 1015.24 1015.19 1015.16
1014.59 1014.97 1015.22 1015.33 1015.32 1015.21 1015.06 1014.92 1014.85 1014.88 1015.03 1015.27 1015.58 1015.89 1016.17 1016.38 1016.50 1016.55 1016.54 1016.51 1016.50 1016.51 1016.55 1016.61 1016.66 1016.67 1016.62 1016.50 1016.32 1016.10 1015.87 1015.66 1015.49 1015.37 1015.30 1015.26 1015.23 1015.21 1015.16 1015.10 1015.03 1014.96 1014.90
1014.82 1015.13 1015.32 1015.39 1015.35 1015.24 1015.10 1014.99 1014.95 1015.01 1015.16 1015.41 1015.69 1015.99 1016.24 1016.44 1016.56 1016.61 1016.62 1016.61 1016.61 1016.63 1016.66 1016.71 1016.73 1016.72 1016.64 1016.51 1016.32 1016.09 1015.85 1015.62 1015.43 1015.29 1015.18 1015.11 1015.06 1015.00 1014.93 1014.85 1014.74 1014.63 1014.53
1015.05 1015.27 1015.39 1015.41 1015.35 1015.26 1015.16 1015.11 1015.12 1015.22 1015.39 1015.63 1015.90 1016.16 1016.39 1016.57 1016.69 1016.75 1016.78 1016.79 1016.80 1016.82 1016.85 1016.88 1016.88 1016.84 1016.75 1016.60 1016.41 1016.18 1015.94 1015.70 1015.49 1015.31 1015.16 1015.03 1014.92 1014.80 1014.68 1014.54 1014.39 1014.23 1014.07
1015.28 1015.39 1015.43 1015.41 1015.35 1015.30 1015.27 1015.29 1015.37 1015.52 1015.72 1015.95 1016.20 1016.43 1016.62 1016.77 1016.88 1016.95 1016.99 1017.02 1017.05 1017.07 1017.09 1017.10 1017.08 1017.02 1016.92 1016.77 1016.58 1016.36 1016.13 1015.88 1015.64 1015.42 1015.21 1015.01 1014.82 1014.63 1014.43 1014.23 1014.02 1013.80 1013.57
1015.51 1015.52 1015.48 1015.43 1015.40 1015.41 1015.46 1015.57 1015.73 1015.93 1016.15 1016.38 1016.59 1016.77 1016.92 1017.03 1017.12 1017.19 1017.24 1017.28 1017.32 1017.35 1017.36 1017.35 1017.32 1017.25 1017.14 1017.00 1016.82 1016.62 1016.39 1016.14 1015.88 1015.60 1015.33 1015.05 1014.77 1014.49 1014.22 1013.94 1013.67 1013.39 1013.11
1015.75 1015.68 1015.60 1015.54 1015.55 1015.63 1015.77 1015.98 1016.21 1016.46 1016.69 1016.89 1017.06 1017.18 1017.27 1017.34 1017.40 1017.45 1017.50 1017.55 1017.59 1017.62 1017.62 1017.60 1017.56 1017.48 1017.38 1017.25 1017.10 1016.92 1016.70 1016.45 1016.17 1015.85 1015.51 1015.15 1014.78 1014.42 1014.07 1013.73 1013.40 1013.07 1012.75
1016.02 1015.91 1015.81 1015.78 1015.84 1016.00 1016.23 1016.52 1016.82 1017.10 1017.33 1017.50 1017.60 1017.65 1017.67 1017.68 1017.69 1017.72 1017.76 1017.80 1017.84 1017.86 1017.86 1017.84 1017.79 1017.72 1017.63 1017.52 1017.39 1017.23 1017.03 1016.78 1016.48 1016.13 1015.73 1015.30 1014.86 1014.43 1014.01 1013.62 1013.25 1012.89 1012.53
1016.36 1016.25 1016.17 1016.18 1016.30 1016.53 1016.83 1017.18 1017.53 1017.83 1018.04 1018.16 1018.20 1018.17 1018.11 1018.05 1018.01 1017.99 1018.01 1018.04 1018.07 1018.09 1018.08 1018.06 1018.01 1017.95 1017.87 1017.78 1017.68 1017.54 1017.36 1017.11 1016.80 1016.41 1015.97 1015.49 1014.99 1014.50 1014.04 1013.61 1013.20 1012.82 1012.45
1016.77 1016.70 1016.67 1016.73 1016.91 1017.19 1017.55 1017.94 1018.31 1018.60 1018.79 1018.86 1018.82 1018.72 1018.58 1018.45 1018.34 1018.28 1018.26 1018.27 1018.29 1018.30 1018.30 1018.27 1018.23 1018.17 1018.11 1018.03 1017.94 1017.82 1017.64 1017.39 1017.07 1016.66 1016.19 1015.67 1015.13 1014.61 1014.11 1013.65 1013.23 1012.83 1012.45
1017.25 1017.25 1017.28 1017.39 1017.62 1017.94 1018.32 1018.73 1019.10 1019.37 1019.52 1019.54 1019.44 1019.26 1019.06 1018.85 1018.69 1018.58 1018.53 1018.51 1018.51 1018.52 1018.51 1018.48 1018.44 1018.38 1018.32 1018.25 1018.16 1018.03 1017.84 1017.58 1017.24 1016.82 1016.32 1015.78 1015.22 1014.68 1014.16 1013.69 1013.25 1012.84 1012.44
1017.77 1017.85 1017.94 1018.10 1018.35 1018.69 1019.07 1019.47 1019.82 1020.06 1020.18 1020.15 1020.01 1019.78 1019.51 1019.26 1019.04 1018.89 1018.80 1018.76 1018.75 1018.74 1018.72 1018.69 1018.64 1018.58 1018.50 1018.41 1018.29 1018.13 1017.92 1017.64 1017.28 1016.83 1016.32 1015.77 1015.21 1014.65 1014.13 1013.64 1013.18 1012.75 1012.33
1018.27 1018.44 1018.60 1018.78 1019.04 1019.36 1019.73 1020.10 1020.42 1020.63 1020.72 1020.66 1020.48 1020.22 1019.93 1019.63 1019.38 1019.20 1019.08 1019.01 1018.98 1018.95 1018.92 1018.87 1018.81 1018.71 1018.60 1018.47 1018.31 1018.10 1017.85 1017.53 1017.13 1016.67 1016.16 1015.61 1015.04 1014.49 1013.95 1013.45 1012.98 1012.52 1012.07
Thickness
5790 5789 5788 5789 5788 5787 5786 5785 5783 5782 5779 5777 5776 5775 5774 5773 5773 5773 5772 5772 5771 5770 5769 5768 5768 5767 5767 5766 5764 5763 5762 5761 5760 5759 5757 5755 5753 5752 5750 5749 5749 5748 5746
5790 5787 5785 5785 5784 5782 5782 5781 5779 5778 5776 5773 5772 5770 5769 5768 5768 5767 5767 5766 5766 5765 5765 5764 5763 5762 5762 5762 5761 5760 5759 5758 5757 5756 5755 5753 5751 5749 5748 5747 5746 5745 5744
5787 5783 5781 5780 5778 5777 5776 5775 5774 5773 5771 5769 5767 5766 5764 5764 5763 5762 5762 5761 5761 5760 5759 5758 5758 5757 5757 5756 5756 5756 5755 5754 5754 5753 5753 5752 5750 5747 5746 5744 5743 5742 5741
5782 5779 5777 5775 5773 5772 5770 5769 5768 5766 5765 5763 5761 5760 5759 5759 5758 5758 5757 5757 5756 5755 5755 5754 5753 5752 5752 5751 5751 5750 5750 5750 5750 5750 5750 5750 5748 5745 5743 5741 5740 5739 5738
5777 5775 5772 5769 5767 5766 5764 5763 5762 5760 5758 5757 5755 5754 5753 5753 5753 5753 5752 5751 5751 5750 5749 5749 5748 5747 5746 5746 5745 5744 5744 5744 5745 5745 5745 5745 5743 5742 5740 5738 5736 5735 5734
5773 5770 5768 5766 5763 5761 5759 5758 5756 5755 5753 5752 5750 5749 5748 5747 5747 5747 5746 5745 5745 5744 5743 5743 5742 5740 5739 5738 5738 5737 5736 5737 5738 5737 5737 5736 5736 5735 5735 5732 5730 5730 5729
5769 5767 5764 5762 5760 5758 5756 5754 5752 5751 5750 5748 5747 5745 5744 5743 5742 5741 5740 5740 5739 5737 5736 5735 5735 5733 5732 5731 5730 5729 5728 5729 5729 5728 5727 5726 5727 5727 5727 5726 5724 5723 5722
5769 5765 5762 5759 5757 5755 5753 5751 5749 5748 5746 5745 5743 5742 5740 5739 5737 5736 5735 5734 5733 5732 5730 5728 5727 5726 5725 5723 5722 5721 5720 5720 5721 5719 5717 5716 5716 5717 5717 5718 5717 5716 5715
5769 5765 5762 5759 5756 5753 5750 5748 5746 5744 5742 5741 5740 5738 5736 5734 5733 5731 5730 5728 5727 5725 5724 5722 5721 5719 5718 5717 5716 5714 5713 5713 5713 5711 5711 5710 5709 5709 5708 5708 5708 5708 5708
5766 5764 5761 5758 5755 5751 5748 5745 5743 5741 5739 5738 5736 5735 5733 5731 5729 5727 5725 5723 5721 5720 5718 5716 5715 5714 5712 5711 5710 5708 5706 5706 5706 5705 5704 5703 5703 5702 5701 5700 5699 5699 5700
5759 5758 5757 5754 5751 5748 5745 5743 5740 5738 5736 5734 5732 5730 5728 5726 5724 5722 5720 5719 5717 5715 5713 5711 5709 5707 5706 5705 5704 5703 5701 5700 5698 5698 5698 5697 5697 5696 5695 5695 5694 5693 5693
5754 5754 5753 5751 5748 5745 5742 5740 5737 5735 5733 5730 5728 5726 5723 5721 5719 5717 5715 5713 5711 5709 5707 5704 5702 5700 5699 5698 5698 5697 5696 5694 5693 5692 5692 5692 5691 5691 5690 5689 5688 5688 5688
5752 5749 5747 5746 5743 5741 5739 5737 5734 5731 5728 5726 5724 5722 5719 5716 5714 5712 5709 5706 5704 5702 5700 5698 5696 5694 5693 5692 5691 5690 5690 5689 5687 5687 5687 5686 5685 5684 5683 5682 5682 5682 5682
5746 5744 5743 5741 5737 5736 5736 5734 5731 5728 5725 5722 5720 5717 5714 5712 5709 5706 5703 5700 5698 5696 5693 5691 5689 5687 5685 5684 5683 5683 5683 5682 5681 5680 5680 5680 5678 5677 5676 5675 5675 5675 5675
5738 5736 5736 5737 5734 5733 5732 5731 5730 5727 5723 5719 5715 5713 5710 5707 5703 5700 5697 5694 5691 5689 5686 5684 5682 5681 5679 5677 5676 5675 5675 5673 5672 5671 5671 5670 5669 5668 5667 5666 5666 5666 5666
5737 5732 5733 5733 5733 5731 5728 5727 5726 5723 5718 5713 5708 5706 5703 5700 5696 5692 5688 5685 5684 5682 5680 5677 5674 5672 5670 5669 5667 5666 5664 5663 5662 5661 5660 5659 5658 5657 5657 5657 5657 5657 5657
5740 5734 5734 5731 5729 5726 5724 5722 5719 5715 5711 5706 5701 5698 5695 5691 5686 5682 5678 5675 5672 5671 5669 5665 5662 5661 5659 5657 5654 5653 5652 5650 5649 5648 5647 5646 5645 5645 5645 5645 5646 5646 5647
5742 5736 5731 5728 5724 5720 5717 5714 5710 5706 5701 5696 5692 5688 5684 5680 5677 5672 5668 5664 5661 5658 5655 5652 5648 5646 5643 5641 5640 5639 5638 5637 5636 5635 5635 5633 5632 5631 5631 5632 5633 5634 5636
5735 5730 5724 5721 5718 5715 5712 5707 5702 5697 5692 5687 5682 5677 5673 5669 5665 5661 5657 5653 5650 5647 5643 5639 5635 5631 5628 5627 5627 5627 5625 5624 5623 5621 5620 5619 5618 5617 5616 5616 5617 5619 5621
5725 5720 5716 5713 5710 5708 5704 5699 5693 5687 5681 5676 5671 5666 5662 5658 5653 5650 5645 5642 5638 5634 5630 5625 5621 5618 5614 5611 5612 5611 5610 5610 5608 5606 5604 5603 5601 5600 5599 5599 5601 5602 5605
5715 5712 5709 5705 5701 5698 5694 5687 5680 5672 5666 5662 5657 5652 5649 5645 5642 5638 5634 5630 5626 5621 5616 5611 5607 5602 5597 5593 5589 5590 5594 5593 5591 5587 5584 5582 5581 5580 5580 5580 5581 5583 5586
5706 5703 5699 5695 5691 5688 5683 5677 5669 5662 5655 5649 5644 5640 5637 5633 5630 5626 5621 5616 5611 5605 5600 5595 5590 5583 5577 5570 5562 5558 5563 5572 5571 5567 5560 5557 5557 5556 5557 5559 5559 5561 5564
5699 5695 5690 5685 5681 5676 5672 5665 5658 5651 5645 5639 5634 5628 5624 5620 5616 5611 5605 5600 5594 5588 5581 5576 5569 5563 5556 5549 5540 5532 5529 5534 5539 5543 5537 5533 5532 5532 5533 5534 5538 5540 5543
5691 5686 5681 5675 5669 5663 5658 5652 5645 5637 5630 5624 5619 5614 5610 5606 5600 5595 5589 5583 5577 5570 5563 5557 5551 5544 5537 5530 5523 5516 5510 5507 5505 5512 5512 5509 5508 5509 5510 5513 5516 5520 5524
5683 5677 5669 5662 5655 5649 5644 5638 5631 5624 5617 5611 5606 5601 5595 5590 5584 5578 5573 5566 5560 5553 5547 5541 5535 5528 5522 5515 5508 5502 5497 5492 5488 5487 5491 5491 5491 5493 5496 5499 5503 5506 5510
5673 5665 5657 5649 5642 5636 5631 5625 5618 5610 5603 5597 5591 5585 5579 5574 5569 5564 5558 5551 5545 5539 5534 5528 5522 5516 5511 5504 5499 5493 5487 5483 5480 5478 5479 5481 5482 5485 5488 5491 5493 5496 5500